GW4826 Weather Reports


time (UTC)temp
C
wind
direction
speed
KPH
gust
KPH
rain 1hr
cm
rain 24hr
cm
rain mn
cm
humidity
%
barometer
mb
20260901014944 25 32 3.2 3.2 0.00 0.00 0.00 53 1014.0
20260901014441 25 354 4.8 4.8 0.00 0.00 0.00 52 1014.0
20260901013936 25 18 3.2 4.8 0.00 0.00 0.00 53 1014.1
20260901013432 26 11 4.8 4.8 0.00 0.00 0.00 52 1014.0
20260901012928 26 17 1.6 4.8 0.00 0.00 0.00 52 1014.0
20260901012427 26 0 3.2 6.4 0.00 0.00 0.00 51 1014.0
20260901011923 26 7 1.6 3.2 0.00 0.00 0.00 51 1014.0
20260901011419 26 0 0.0 3.2 0.00 0.00 0.00 50 1013.6
20260901010917 26 9 0.0 1.6 0.00 0.00 0.00 49 1013.8
20260901010412 26 64 3.2 3.2 0.00 0.00 0.00 49 1013.7
20260901005911 26 10 1.6 3.2 0.00 0.00 0.00 48 1013.7
20260901005407 27 23 3.2 4.8 0.00 0.00 0.00 47 1013.7
20260901004901 27 333 1.6 4.8 0.00 0.00 0.00 47 1013.9
20260901004400 27 343 0.0 3.2 0.00 0.00 0.00 48 1013.8
20260901003856 27 23 4.8 9.7 0.00 0.00 0.00 45 1013.7
20260901003351 27 12 4.8 6.4 0.00 0.00 0.00 45 1013.8
20260901002849 27 13 3.2 9.7 0.00 0.00 0.00 44 1013.9
20260901002343 28 351 8.0 12.9 0.00 0.00 0.00 44 1013.9
20260901001838 27 28 4.8 8.0 0.00 0.00 0.00 44 1013.8
20260901001333 28 15 3.2 6.4 0.00 0.00 0.00 45 1013.7
20260901000829 28 6 4.8 11.3 0.00 0.00 0.00 45 1013.7
20260901000324 27 355 8.0 9.7 0.00 0.00 0.00 44 1013.8
20260831235822 28 359 4.8 11.3 0.00 0.00 0.00 44 1013.9
20260831235318 28 348 8.0 9.7 0.00 0.00 0.00 43 1013.8
20260831234813 28 8 6.4 9.7 0.00 0.00 0.00 44 1013.8
20260831234313 28 16 4.8 9.7 0.00 0.00 0.00 45 1013.8
20260831233809 28 340 6.4 9.7 0.00 0.00 0.00 45 1013.8
20260831233304 28 343 11.3 12.9 0.00 0.00 0.00 43 1013.8
20260831232759 28 12 6.4 14.5 0.00 0.00 0.00 43 1013.7
20260831232255 28 7 6.4 12.9 0.00 0.00 0.00 44 1013.7
20260831231745 29 21 4.8 11.3 0.00 0.00 0.00 43 1013.7
20260831231241 29 357 8.0 12.9 0.00 0.00 0.00 44 1013.7
20260831230736 29 315 1.6 3.2 0.00 0.00 0.00 47 1013.6
20260831230230 29 334 3.2 6.4 0.00 0.00 0.00 45 1013.7
20260831225729 30 322 6.4 8.0 0.00 0.00 0.00 44 1013.6
20260831225225 30 16 4.8 6.4 0.00 0.00 0.00 39 1013.7
20260831224720 30 345 4.8 9.7 0.00 0.00 0.00 38 1013.9
20260831224215 30 344 3.2 9.7 0.00 0.00 0.00 38 1014.1
20260831223705 30 228 1.6 3.2 0.00 0.00 0.00 41 1013.9
20260831223201 31 328 4.8 8.0 0.00 0.00 0.00 36 1013.7
20260831222657 31 135 1.6 4.8 0.00 0.00 0.00 36 1014.0
20260831222153 31 307 1.6 4.8 0.00 0.00 0.00 36 1013.8
20260831221648 31 312 3.2 4.8 0.00 0.00 0.00 35 1013.9
20260831221143 31 269 0.0 4.8 0.00 0.00 0.00 37 1013.8
20260831220638 31 318 4.8 4.8 0.00 0.00 0.00 36 1013.9
20260831220132 30 322 3.2 3.2 0.00 0.00 0.00 41 1013.9
20260831215628 30 224 0.0 3.2 0.00 0.00 0.00 41 1013.9
20260831215124 30 269 1.6 4.8 0.00 0.00 0.00 39 1013.9
20260831214621 32 351 1.6 3.2 0.00 0.00 0.00 38 1014.1
20260831214117 32 248 1.6 6.4 0.00 0.00 0.00 36 1014.0
20260831213614 32 324 0.0 4.8 0.00 0.00 0.00 36 1013.9
20260831213108 32 263 3.2 4.8 0.00 0.00 0.00 35 1014.3
20260831212605 32 269 3.2 3.2 0.00 0.00 0.00 38 1014.1
20260831212101 32 216 3.2 4.8 0.00 0.00 0.00 34 1014.1
20260831211600 32 257 3.2 4.8 0.00 0.00 0.00 38 1014.2
20260831211054 31 315 1.6 6.4 0.00 0.00 0.00 40 1014.2
20260831210550 31 312 4.8 9.7 0.00 0.00 0.00 39 1013.9
20260831210046 31 358 6.4 8.0 0.00 0.00 0.00 36 1014.2
20260831205545 33 215 1.6 3.2 0.00 0.00 0.00 33 1014.3
20260831205041 32 218 3.2 3.2 0.00 0.00 0.00 34 1014.5
20260831204536 32 287 3.2 4.8 0.00 0.00 0.00 35 1014.5
20260831204034 32 283 1.6 3.2 0.00 0.00 0.00 32 1014.6
20260831203534 31 252 1.6 4.8 0.00 0.00 0.00 37 1014.7
20260831203033 31 242 3.2 6.4 0.00 0.00 0.00 37 1014.5
20260831202527 30 320 3.2 8.0 0.00 0.00 0.00 39 1014.6
20260831202027 30 320 3.2 9.7 0.00 0.00 0.00 39 1014.6
20260831201526 30 253 3.2 3.2 0.00 0.00 0.00 44 1014.7
20260831201021 30 17 6.4 6.4 0.00 0.00 0.00 40 1014.5
20260831200517 31 293 3.2 4.8 0.00 0.00 0.00 41 1014.3
20260831200012 30 253 3.2 4.8 0.00 0.00 0.00 41 1014.8
20260831195508 30 303 1.6 8.0 0.00 0.00 0.00 40 1014.8
20260831195007 30 15 4.8 9.7 0.00 0.00 0.00 33 1014.9
20260831194503 30 259 0.0 6.4 0.00 0.00 0.00 36 1015.2
20260831194002 31 258 4.8 4.8 0.00 0.00 0.00 35 1015.0
20260831193458 31 249 4.8 4.8 0.00 0.00 0.00 36 1015.1
20260831192952 31 88 4.8 6.4 0.00 0.00 0.00 34 1015.1
20260831192447 31 196 6.4 6.4 0.00 0.00 0.00 38 1015.2
20260831191942 31 245 3.2 6.4 0.00 0.00 0.00 41 1015.3
20260831191439 30 248 1.6 3.2 0.00 0.00 0.00 36 1015.2
20260831190935 30 252 0.0 3.2 0.00 0.00 0.00 44 1015.0
20260831190429 30 281 3.2 6.4 0.00 0.00 0.00 45 1015.2
20260831185928 30 176 6.4 6.4 0.00 0.00 0.00 39 1015.1
20260831185424 29 15 0.0 8.0 0.00 0.00 0.00 40 1015.1
20260831184924 29 284 0.0 4.8 0.00 0.00 0.00 43 1015.2
20260831184419 30 269 0.0 4.8 0.00 0.00 0.00 45 1015.3
20260831183914 30 288 1.6 8.0 0.00 0.00 0.00 45 1015.3
20260831183414 29 147 6.4 8.0 0.00 0.00 0.00 40 1015.1
20260831182913 28 276 3.2 4.8 0.00 0.00 0.00 50 1015.2
20260831182409 29 314 4.8 4.8 0.00 0.00 0.00 44 1015.3
20260831181903 28 249 4.8 6.4 0.00 0.00 0.00 49 1015.1
20260831181359 28 257 4.8 4.8 0.00 0.00 0.00 50 1015.5
20260831180853 29 355 4.8 6.4 0.00 0.00 0.00 47 1015.6
20260831180348 28 260 3.2 3.2 0.00 0.00 0.00 48 1015.6
20260831175847 27 246 0.0 6.4 0.00 0.00 0.00 49 1015.7
20260831175344 27 269 3.2 3.2 0.00 0.00 0.00 48 1015.8
20260831174840 27 205 1.6 4.8 0.00 0.00 0.00 48 1015.7
20260831174335 27 280 3.2 3.2 0.00 0.00 0.00 52 1015.6
20260831173834 27 250 3.2 4.8 0.00 0.00 0.00 51 1015.7
20260831173328 27 240 4.8 6.4 0.00 0.00 0.00 56 1015.8
20260831172823 27 253 3.2 6.4 0.00 0.00 0.00 55 1015.6
20260831172319 26 284 1.6 6.4 0.00 0.00 0.00 55 1015.6
20260831171818 26 253 3.2 8.0 0.00 0.00 0.00 56 1015.6
20260831171315 25 9 3.2 4.8 0.00 0.00 0.00 57 1015.6
20260831170812 26 265 4.8 6.4 0.00 0.00 0.00 55 1015.8
20260831170307 25 279 4.8 8.0 0.00 0.00 0.00 60 1015.8
20260831165804 25 277 1.6 4.8 0.00 0.00 0.00 57 1015.8
20260831165300 25 264 3.2 6.4 0.00 0.00 0.00 58 1016.0
20260831164755 25 257 0.0 3.2 0.00 0.00 0.00 59 1016.0
20260831164252 25 258 4.8 4.8 0.00 0.00 0.00 60 1016.1
20260831163747 24 259 3.2 4.8 0.00 0.00 0.00 60 1016.0
20260831163242 23 247 0.0 3.2 0.00 0.00 0.00 64 1015.7
20260831162741 24 346 1.6 6.4 0.00 0.00 0.00 62 1015.7
20260831162236 25 275 4.8 6.4 0.00 0.00 0.00 59 1015.8
20260831161735 26 322 0.0 6.4 0.00 0.00 0.00 58 1015.9
20260831161232 25 260 3.2 4.8 0.00 0.00 0.00 58 1015.9
20260831160732 25 84 3.2 4.8 0.00 0.00 0.00 61 1016.1
20260831160227 24 313 1.6 4.8 0.00 0.00 0.00 62 1016.0
20260831155726 24 251 3.2 8.0 0.00 0.00 0.00 62 1015.8
20260831155222 23 196 3.2 6.4 0.00 0.00 0.00 60 1015.9
20260831154718 23 258 4.8 4.8 0.00 0.00 0.00 63 1015.7
20260831154214 22 297 1.6 8.0 0.00 0.00 0.00 66 1015.6
20260831153713 22 359 6.4 6.4 0.00 0.00 0.00 66 1015.7
20260831153209 22 351 8.0 11.3 0.00 0.00 0.00 63 1015.7
20260831152704 22 271 4.8 4.8 0.00 0.00 0.00 65 1015.6
20260831152200 21 338 3.2 8.0 0.00 0.00 0.00 67 1015.4
20260831151700 21 316 6.4 11.3 0.00 0.00 0.00 66 1015.6
20260831151154 22 302 3.2 4.8 0.00 0.00 0.00 66 1015.5
20260831150649 21 295 3.2 4.8 0.00 0.00 0.00 70 1015.5
20260831150145 20 252 3.2 4.8 0.00 0.00 0.00 69 1015.5
20260831145638 21 259 3.2 12.9 0.00 0.00 0.00 68 1015.5
20260831145135 20 255 3.2 4.8 0.00 0.00 0.00 71 1015.3
20260831144631 20 279 4.8 6.4 0.00 0.00 0.00 71 1015.6
20260831144127 20 278 6.4 6.4 0.00 0.00 0.00 71 1015.6
20260831143626 20 269 3.2 6.4 0.00 0.00 0.00 71 1015.4
20260831143121 20 264 6.4 8.0 0.00 0.00 0.00 70 1015.5
20260831142618 20 250 3.2 6.4 0.00 0.00 0.00 69 1015.4
20260831142113 20 280 4.8 9.7 0.00 0.00 0.00 71 1015.5
20260831141611 20 309 3.2 6.4 0.00 0.00 0.00 73 1015.2
20260831141107 20 317 3.2 11.3 0.00 0.00 0.00 71 1015.3
20260831140606 20 265 4.8 8.0 0.00 0.00 0.00 73 1015.3
20260831140101 19 292 4.8 6.4 0.00 0.00 0.00 75 1015.0
20260831135558 18 262 6.4 8.0 0.00 0.00 0.00 76 1015.2
20260831135054 18 286 4.8 8.0 0.00 0.00 0.00 76 1015.3
20260831134550 18 269 6.4 8.0 0.00 0.00 0.00 78 1015.2
20260831134050 18 271 6.4 6.4 0.00 0.00 0.00 78 1015.2
20260831133550 18 275 6.4 6.4 0.00 0.00 0.00 79 1015.2
20260831133045 17 265 3.2 6.4 0.00 0.00 0.00 80 1015.0
20260831132541 17 251 3.2 6.4 0.00 0.00 0.00 82 1014.9
20260831132040 17 266 3.2 6.4 0.00 0.00 0.00 84 1014.9
20260831131535 16 266 4.8 8.0 0.00 0.00 0.00 85 1014.9
20260831131031 16 275 4.8 8.0 0.00 0.00 0.00 86 1014.6
20260831130526 16 275 6.4 9.7 0.00 0.00 0.00 86 1014.6
20260831130021 16 260 6.4 8.0 0.00 0.00 0.00 86 1014.6
20260831125515 16 266 6.4 8.0 0.00 0.00 0.00 87 1014.5
20260831125011 16 268 4.8 8.0 0.00 0.00 0.00 87 1014.1
20260831124507 16 279 3.2 8.0 0.00 0.00 0.00 87 1014.2
20260831124003 16 272 6.4 8.0 0.00 0.00 0.00 87 1014.2
20260831123501 16 263 6.4 9.7 0.00 0.00 0.00 87 1014.1
20260831122955 16 266 6.4 8.0 0.00 0.00 0.00 86 1014.3
20260831122451 16 271 4.8 6.4 0.00 0.00 0.00 86 1013.8
20260831121946 16 273 4.8 6.4 0.00 0.00 0.00 86 1013.8
20260831121441 16 280 6.4 9.7 0.00 0.00 0.00 86 1013.7
20260831120937 16 271 6.4 8.0 0.00 0.00 0.00 85 1013.7
20260831120437 17 275 6.4 8.0 0.00 0.00 0.00 85 1013.7
20260831115937 17 260 6.4 8.0 0.00 0.00 0.00 85 1013.6
20260831115433 17 274 4.8 6.4 0.00 0.00 0.00 85 1013.9
20260831114933 17 260 6.4 9.7 0.00 0.00 0.00 86 1013.6
20260831114431 17 272 4.8 9.7 0.00 0.00 0.00 86 1013.5
20260831113927 17 277 6.4 11.3 0.00 0.00 0.00 86 1013.4
20260831113427 17 282 8.0 9.7 0.00 0.00 0.00 86 1013.3
20260831112922 17 276 8.0 9.7 0.00 0.00 0.00 86 1013.1
20260831112417 17 281 6.4 9.7 0.00 0.00 0.00 86 1013.2
20260831111912 17 261 6.4 9.7 0.00 0.00 0.00 86 1013.3
20260831111408 17 269 4.8 9.7 0.00 0.00 0.00 85 1013.0
20260831110904 17 276 4.8 8.0 0.00 0.00 0.00 85 1013.1
20260831110403 17 265 6.4 11.3 0.00 0.00 0.00 85 1012.9
20260831105902 17 273 4.8 9.7 0.00 0.00 0.00 85 1013.0
20260831105358 18 271 8.0 11.3 0.00 0.00 0.00 85 1013.1
20260831104853 18 281 8.0 11.3 0.00 0.00 0.00 85 1013.0
20260831104349 18 263 8.0 12.9 0.00 0.00 0.00 85 1012.9
20260831103844 18 257 11.3 12.9 0.00 0.00 0.00 85 1012.9
20260831103340 18 278 6.4 8.0 0.00 0.00 0.00 85 1012.8
20260831102834 18 267 9.7 9.7 0.00 0.00 0.00 86 1012.7
20260831102324 18 271 4.8 9.7 0.00 0.00 0.00 86 1012.6
20260831101820 18 266 6.4 9.7 0.00 0.00 0.00 86 1012.2
20260831101314 18 268 6.4 9.7 0.00 0.00 0.00 86 1012.6
20260831100810 18 272 6.4 9.7 0.00 0.00 0.00 86 1012.6
20260831100306 18 275 6.4 9.7 0.00 0.00 0.00 87 1012.4
20260831095805 18 275 4.8 9.7 0.00 0.00 0.00 87 1012.4
20260831095300 18 272 6.4 11.3 0.00 0.00 0.00 87 1012.0
20260831094755 18 275 6.4 11.3 0.00 0.00 0.00 87 1012.0
20260831094250 18 266 6.4 11.3 0.00 0.00 0.00 87 1011.9
20260831093747 18 272 4.8 9.7 0.00 0.00 0.00 87 1011.9
20260831093246 18 268 8.0 9.7 0.00 0.00 0.00 87 1011.7
20260831092743 19 266 8.0 9.7 0.00 0.00 0.00 87 1011.5
20260831092239 19 271 6.4 9.7 0.00 0.00 0.00 87 1011.3
20260831091738 19 284 4.8 6.4 0.00 0.00 0.00 87 1011.2
20260831091234 19 264 4.8 8.0 0.00 0.00 0.00 86 1011.3
20260831090729 19 265 6.4 8.0 0.00 0.00 0.00 87 1011.1
20260831090225 19 267 3.2 4.8 0.00 0.00 0.00 86 1011.1
20260831085721 20 267 4.8 6.4 0.00 0.00 0.00 86 1011.2
20260831085216 20 274 3.2 6.4 0.00 0.00 0.00 86 1010.9
20260831084711 20 262 4.8 6.4 0.00 0.00 0.00 86 1010.9
20260831084207 20 269 4.8 4.8 0.00 0.00 0.00 85 1010.8
20260831083703 20 266 4.8 6.4 0.00 0.00 0.00 84 1010.9
20260831083158 20 275 3.2 4.8 0.00 0.00 0.00 84 1010.8
20260831082656 20 257 3.2 4.8 0.00 0.00 0.00 84 1010.7
20260831082152 20 221 1.6 3.2 0.00 0.00 0.00 84 1010.6
20260831081647 20 342 6.4 19.3 0.00 0.00 0.00 84 1010.5
20260831081143 20 238 0.0 3.2 0.00 0.00 0.00 85 1010.5
20260831080639 20 237 3.2 4.8 0.00 0.00 0.00 85 1010.5
20260831080133 20 267 3.2 6.4 0.00 0.00 0.00 85 1010.4
20260831075629 20 338 3.2 12.9 0.00 0.00 0.00 85 1010.3
20260831075124 20 264 6.4 8.0 0.00 0.00 0.00 85 1010.4
20260831074623 20 303 3.2 6.4 0.00 0.00 0.00 85 1010.4
20260831074118 20 246 6.4 11.3 0.00 0.00 0.00 85 1010.3
20260831073613 20 316 4.8 8.0 0.00 0.00 0.00 85 1010.2
20260831073113 21 293 6.4 19.3 0.00 0.00 0.00 85 1010.2
20260831072608 21 278 8.0 9.7 0.00 0.00 0.00 85 1010.3
20260831072105 21 261 6.4 12.9 0.00 0.00 0.00 85 1010.1
20260831071603 21 278 9.7 12.9 0.00 0.00 0.00 85 1010.3
20260831071059 21 278 8.0 11.3 0.00 0.00 0.00 86 1010.2
20260831070557 22 287 9.7 14.5 0.00 0.00 0.00 86 1009.9
20260831070052 22 278 8.0 9.7 0.00 0.00 0.00 86 1009.5
20260831065550 22 306 6.4 11.3 0.00 0.00 0.00 85 1009.5
20260831065045 22 291 8.0 9.7 0.00 0.00 0.00 82 1009.5
20260831064540 23 275 8.0 9.7 0.00 0.00 0.00 79 1009.4
20260831064035 23 283 6.4 9.7 0.00 0.00 0.00 75 1009.0
20260831063531 23 271 9.7 16.1 0.00 0.00 0.00 73 1009.0
20260831063025 22 241 3.2 4.8 0.00 0.00 0.00 75 1009.1
20260831062520 22 265 3.2 6.4 0.00 0.00 0.00 74 1009.0
20260831062020 22 269 4.8 4.8 0.00 0.00 0.00 77 1008.7
20260831061518 22 230 0.0 4.8 0.00 0.00 0.00 77 1008.7
20260831061015 22 235 0.0 1.6 0.00 0.00 0.00 77 1008.7
20260831060514 22 280 1.6 3.2 0.00 0.00 0.00 77 1008.9
20260831060010 22 224 1.6 3.2 0.00 0.00 0.00 76 1008.9
20260831055504 22 271 3.2 9.7 0.00 0.00 0.00 75 1008.9
20260831055000 22 325 4.8 6.4 0.00 0.00 0.00 74 1008.6
20260831054459 22 162 1.6 3.2 0.00 0.00 0.00 74 1008.5
20260831053959 22 273 0.0 3.2 0.00 0.00 0.00 74 1008.5
20260831053457 22 226 3.2 3.2 0.00 0.00 0.00 74 1008.5
20260831052952 23 269 1.6 1.6 0.00 0.00 0.00 73 1008.3
20260831052451 23 153 0.0 3.2 0.00 0.00 0.00 72 1008.0
20260831051950 23 233 0.0 3.2 0.00 0.00 0.00 71 1008.3
20260831051449 23 255 0.0 1.6 0.00 0.00 0.00 70 1008.0
20260831050943 23 217 0.0 4.8 0.00 0.00 0.00 69 1008.0
20260831050443 24 168 4.8 8.0 0.00 0.00 0.00 69 1007.8
20260831045942 24 143 6.4 8.0 0.00 0.00 0.00 68 1007.8
20260831045441 24 152 4.8 6.4 0.00 0.00 0.00 68 1007.9
20260831044941 24 158 3.2 6.4 0.00 0.00 0.00 68 1007.7
20260831044437 24 157 4.8 8.0 0.00 0.00 0.00 67 1007.9
20260831043932 24 127 4.8 4.8 0.00 0.00 0.00 68 1007.8
20260831043427 24 139 1.6 3.2 0.00 0.00 0.00 68 1007.9
20260831042922 24 120 1.6 3.2 0.00 0.00 0.00 69 1008.0
20260831042422 24 230 0.0 1.6 0.00 0.00 0.00 68 1007.9
20260831041916 24 311 1.6 4.8 0.00 0.00 0.00 68 1007.9
20260831041416 24 214 0.0 4.8 0.00 0.00 0.00 68 1007.7
20260831040912 24 351 1.6 3.2 0.00 0.00 0.00 69 1007.6
20260831040411 24 274 1.6 3.2 0.00 0.00 0.00 69 1007.6
20260831035909 24 263 0.0 3.2 0.00 0.00 0.00 68 1007.7
20260831035409 25 296 3.2 3.2 0.00 0.00 0.00 67 1007.7
20260831034908 25 322 0.0 1.6 0.00 0.00 0.00 66 1007.6
20260831034404 25 269 3.2 3.2 0.00 0.00 0.00 66 1007.8
20260831033859 25 283 1.6 3.2 0.00 0.00 0.00 65 1007.8
20260831033354 25 321 0.0 3.2 0.00 0.00 0.00 64 1007.8
20260831032844 25 325 3.2 3.2 0.00 0.00 0.00 64 1007.7
20260831032343 25 311 4.8 4.8 0.00 0.00 0.00 65 1007.6
20260831031839 25 355 1.6 3.2 0.00 0.00 0.00 65 1007.5
20260831031338 25 329 0.0 1.6 0.00 0.00 0.00 64 1007.4
20260831030828 25 129 0.0 1.6 0.00 0.00 0.00 63 1007.5
20260831030326 25 336 0.0 1.6 0.00 0.00 0.00 62 1007.6
20260831025825 26 322 1.6 3.2 0.00 0.00 0.00 60 1007.7
20260831025320 26 268 3.2 3.2 0.00 0.00 0.00 59 1007.7
20260831024816 26 319 3.2 3.2 0.00 0.00 0.00 60 1007.7
20260831024315 26 359 0.0 0.0 0.00 0.00 0.00 58 1007.4
20260831023814 26 102 0.0 3.2 0.00 0.00 0.00 58 1007.5
20260831023312 26 298 3.2 3.2 0.00 0.00 0.00 59 1007.3
20260831022808 26 243 1.6 3.2 0.00 0.00 0.00 58 1007.5
20260831022306 26 8 1.6 3.2 0.00 0.00 0.00 58 1007.2
20260831021801 26 323 1.6 3.2 0.00 0.00 0.00 58 1007.2
20260831021256 26 328 0.0 1.6 0.00 0.00 0.00 59 1007.2
20260831020752 26 320 3.2 3.2 0.00 0.00 0.00 59 1007.2
20260831020245 26 337 0.0 3.2 0.00 0.00 0.00 59 1007.2
20260831015741 26 342 3.2 3.2 0.00 0.00 0.00 57 1007.2
20260831015237 26 279 0.0 1.6 0.00 0.00 0.00 57 1007.4